Theta_e
318 319 320 320 315 305 305 305 305 305 305 304 304 304 304 304 303 303 304 304 304 304 306 306 305 306 309 310 311 311 306 306 309 308 310 310 311 313 313 314 315 317 318 318 318
317 318 320 320 319 317 307 304 305 305 305 305 304 304 304 304 304 305 305 304 304 304 304 305 306 307 310 311 311 308 305 306 306 305 308 308 308 309 309 309 310 312 314 316 316
316 317 318 319 320 319 319 309 304 305 304 305 305 304 304 305 305 305 306 305 304 304 304 304 305 309 309 311 310 306 306 304 307 309 309 308 308 309 308 307 309 309 309 311 315
312 315 316 317 319 320 320 320 311 304 304 304 304 304 304 305 306 308 306 306 304 304 304 305 307 310 308 309 310 307 307 307 309 310 309 308 308 307 308 309 310 309 310 311 315
300 299 312 316 318 318 320 320 320 311 304 304 304 304 304 304 306 306 306 306 304 304 304 307 309 309 308 308 309 309 309 309 309 309 309 309 307 306 308 310 309 309 309 312 315
305 302 299 302 315 318 319 319 320 319 307 304 304 304 304 303 306 306 308 307 305 303 304 308 309 309 308 308 308 308 308 308 310 309 309 307 306 308 308 309 309 309 308 311 313
308 306 303 300 298 311 318 318 319 319 312 305 304 304 304 305 306 307 307 307 305 304 305 308 308 309 308 307 308 309 308 306 306 306 306 307 303 304 308 308 309 310 309 309 309
305 307 306 303 300 298 310 317 318 319 314 307 305 304 304 304 305 306 307 305 304 303 304 307 309 309 309 308 307 306 307 307 306 305 306 305 303 305 309 308 309 310 310 310 310
302 304 306 305 303 299 299 313 317 317 315 309 306 305 304 304 305 305 306 305 304 304 305 306 309 308 308 305 304 305 303 305 305 305 306 304 305 304 308 308 309 310 310 310 310
302 301 303 305 305 303 298 310 315 315 312 308 306 305 306 305 306 305 306 305 305 306 308 308 308 305 303 303 304 304 305 304 305 306 307 307 306 305 308 308 309 309 310 310 309
300 301 301 303 305 304 299 309 313 311 310 311 311 309 306 305 306 306 306 306 306 308 306 307 306 305 306 304 304 303 304 304 304 306 307 305 305 306 306 304 305 306 307 309 308
302 301 301 301 303 305 301 307 310 312 311 313 311 310 307 306 306 306 306 307 307 306 305 307 307 305 304 305 305 305 306 305 305 305 305 304 305 304 304 304 306 306 307 306 306
301 302 300 301 302 305 303 304 310 311 313 314 313 312 312 311 308 306 306 307 306 305 305 306 305 304 304 305 305 304 304 305 306 305 304 303 304 307 307 307 306 306 306 306 308
300 301 301 300 301 303 304 301 307 310 311 312 311 312 311 310 309 308 306 307 306 305 305 305 304 304 304 304 304 304 303 304 306 305 304 304 304 305 306 306 306 305 307 308 309
299 300 301 301 302 304 304 303 303 309 309 305 311 313 311 313 311 307 307 307 306 305 304 305 305 304 305 304 303 304 303 303 305 304 306 305 304 304 305 307 306 304 306 309 311
298 299 300 301 301 301 303 302 303 308 310 310 310 310 308 312 308 306 307 308 306 305 306 303 305 304 304 304 303 304 305 304 303 305 303 304 304 304 305 307 307 305 305 307 310
297 298 299 299 300 301 302 303 306 306 305 309 310 310 312 312 309 308 308 307 307 307 305 305 305 305 305 305 306 305 305 302 304 300 305 303 304 305 305 307 306 305 305 306 307
297 297 298 299 299 300 302 305 305 306 305 307 307 309 313 312 311 308 308 308 307 305 306 307 306 305 304 304 306 304 306 307 307 305 306 303 306 306 304 304 307 306 307 306 306
296 297 299 298 299 300 301 304 303 305 306 307 309 312 312 312 311 309 309 309 308 305 313 307 307 304 304 304 306 307 307 305 305 296 306 305 304 305 303 303 303 304 305 306 307
297 297 297 298 300 300 301 304 301 303 305 306 309 311 311 311 311 311 309 310 310 307 306 306 309 303 304 304 304 305 304 307 304 304 308 307 307 309 305 303 301 302 303 305 306
297 298 298 297 299 300 302 302 301 301 305 306 307 308 310 310 311 311 309 309 310 308 307 307 309 305 304 305 306 305 305 305 306 307 308 306 308 304 306 303 301 301 304 305 306
297 298 297 297 297 300 302 302 302 301 303 306 307 306 309 309 310 311 311 310 308 307 308 310 307 307 306 304 303 303 305 305 309 308 304 307 308 304 304 301 301 301 304 304 305
298 298 297 296 298 298 299 301 301 301 303 306 307 307 306 308 309 310 310 307 307 307 308 310 310 310 309 308 304 305 304 305 306 306 307 309 309 303 302 301 303 304 306 306 304
297 297 296 297 297 297 298 301 301 300 300 304 307 307 307 309 307 310 308 306 306 307 307 309 308 313 315 312 307 305 304 304 308 309 308 308 308 306 304 303 302 305 306 306 306
295 295 295 296 298 297 297 298 301 300 300 300 302 305 308 309 309 307 309 304 305 308 309 309 310 309 304 306 307 307 307 306 307 308 311 310 306 306 304 303 303 306 305 306 306
295 294 294 293 298 297 297 297 297 300 300 300 302 303 304 308 308 307 308 304 305 306 308 308 308 308 310 303 305 306 305 307 307 306 308 301 302 304 305 305 304 304 306 306 306
295 294 295 293 295 297 297 297 297 297 298 299 299 301 303 304 305 304 307 306 305 308 309 310 306 312 315 306 309 311 308 306 306 306 308 307 307 304 304 304 303 304 306 306 307
Wind_Speed
7 7 9 10 10 9 8 10 9 10 9 8 8 9 9 11 12 14 16 14 11 17 8 11 13 10 9 8 5 5 3 3 5 6 4 0 0 2 2 4 5 6 7 6 5
9 8 8 11 11 11 9 9 11 10 10 10 9 9 10 11 13 17 13 11 12 12 12 9 13 11 6 6 6 4 4 9 4 4 2 2 1 4 3 2 6 11 14 12 10
17 13 12 10 12 13 11 11 10 11 11 11 10 9 10 10 12 5 6 14 13 12 14 9 10 11 5 5 6 5 6 4 3 5 2 2 3 3 2 5 13 9 8 13 16
27 23 18 16 10 12 14 12 11 11 11 12 12 10 9 8 4 2 4 5 14 12 12 13 12 8 4 5 6 3 8 5 2 2 1 2 4 5 12 15 13 10 9 11 17
15 19 26 22 18 13 11 13 13 12 11 11 12 10 9 8 10 8 6 3 11 13 14 14 17 7 5 5 4 3 3 3 7 8 8 9 10 10 21 29 25 22 12 14 17
20 16 17 22 26 20 14 13 14 13 12 12 11 11 10 7 8 8 7 6 8 12 15 15 8 8 4 4 6 2 4 8 10 9 6 4 3 1 5 2 4 9 20 18 19
20 22 18 15 19 24 20 16 16 13 12 11 10 10 14 21 9 7 6 7 8 13 14 15 7 8 3 1 4 1 4 6 8 5 6 4 7 10 23 15 15 6 4 15 23
17 20 19 19 15 18 23 18 17 17 13 11 10 8 11 10 16 20 9 8 10 12 13 14 6 5 3 1 3 1 2 2 1 5 1 4 9 4 3 9 7 10 9 8 8
24 21 19 19 18 15 18 22 16 18 16 12 8 7 9 9 17 13 15 8 10 11 10 13 7 3 2 3 3 3 3 4 7 6 3 5 7 4 1 1 5 7 10 12 11
23 28 24 19 17 16 14 11 15 16 11 10 7 4 14 6 8 13 14 10 9 13 10 9 5 3 2 4 6 6 4 4 4 1 2 3 12 10 21 19 22 19 21 23 24
26 27 26 25 19 15 11 7 9 6 16 11 9 6 2 9 4 8 16 16 10 13 5 5 4 9 15 5 2 3 3 2 3 1 2 6 9 13 20 12 19 23 23 24 20
30 27 25 27 23 16 15 15 17 3 6 29 19 21 6 6 3 9 18 12 8 5 7 3 10 8 6 7 5 1 1 4 3 1 2 4 13 10 9 7 7 11 12 10 14
32 30 27 23 26 24 23 29 15 13 7 8 37 25 20 16 7 13 23 9 4 6 7 6 3 9 7 5 8 4 6 3 3 3 1 6 9 4 1 2 3 1 3 7 12
35 33 30 27 28 29 30 22 20 11 5 8 11 16 22 17 8 20 29 9 4 10 8 6 4 5 4 6 7 5 9 6 1 4 4 3 5 5 2 5 3 4 6 10 15
37 35 31 29 27 18 22 21 31 13 6 9 13 11 23 21 17 18 29 12 7 7 8 9 8 6 5 7 8 5 5 7 4 4 1 2 1 8 2 6 7 7 9 11 14
39 38 35 33 33 31 11 13 26 8 12 7 10 14 12 18 5 10 16 13 6 5 2 5 2 5 5 2 10 8 7 7 4 3 2 7 7 5 5 6 3 4 13 13 15
40 41 38 40 41 32 31 24 11 17 1 8 8 11 18 10 9 8 14 15 9 6 6 1 4 2 3 6 3 2 6 3 3 2 6 2 3 8 4 5 5 8 14 15 16
43 41 41 40 39 33 37 13 19 22 13 2 8 15 16 11 11 9 17 14 18 3 4 8 4 9 5 6 8 7 7 6 8 5 3 2 7 6 4 7 6 6 12 15 17
44 46 42 42 42 42 36 20 18 16 19 8 11 18 11 15 9 12 17 19 19 16 14 9 7 1 1 4 8 6 7 4 6 2 2 5 7 9 5 4 5 7 14 17 17
47 39 43 48 42 47 21 26 10 9 11 8 16 14 25 21 13 19 17 16 10 23 2 6 3 1 2 2 1 4 7 3 2 4 4 4 5 5 5 9 7 7 14 16 15
38 23 30 50 39 35 14 21 6 24 10 18 17 14 19 18 20 17 19 8 20 19 11 3 2 1 5 6 8 3 3 3 4 4 5 2 6 7 8 9 10 8 14 14 15
49 8 28 35 13 6 19 11 18 12 22 9 4 6 14 22 18 19 20 16 27 18 23 6 4 4 4 1 2 3 5 6 5 6 2 3 6 1 5 7 14 14 13 11 13
21 21 18 43 14 18 12 7 19 16 15 17 8 8 5 17 11 20 13 9 13 21 23 13 5 4 3 5 2 5 5 4 4 3 7 6 7 4 2 7 12 17 14 12 12
21 6 11 33 16 21 15 22 10 21 21 7 4 5 7 17 9 19 10 5 19 14 17 22 3 11 13 6 12 10 8 7 4 4 5 7 4 3 5 8 9 16 17 15 13
9 4 8 4 13 18 18 10 22 14 13 22 14 13 8 6 20 8 17 5 9 22 8 12 12 12 4 4 9 8 14 11 9 18 11 15 8 8 13 13 16 22 20 17 15
9 3 5 3 9 14 18 16 19 6 11 18 20 20 19 4 14 9 17 7 7 10 16 5 3 6 7 1 2 2 7 17 23 17 13 2 6 5 7 8 16 23 24 20 17
26 14 9 6 7 12 10 16 18 22 16 15 25 17 13 7 11 14 20 17 14 16 20 11 5 7 6 7 6 4 20 17 17 22 25 17 10 5 5 10 20 27 27 23 19
Wind_Direction
266 278 290 304 305 291 286 286 284 286 285 285 287 285 283 281 279 270 265 259 248 237 246 223 215 206 194 190 175 156 69 216 245 171 252 287 213 190 239 252 232 218 233 238 224
253 252 254 280 292 301 293 280 282 283 282 283 284 287 290 291 289 278 266 255 239 227 223 217 204 191 186 191 189 136 147 218 202 203 267 328 356 318 319 267 256 250 243 241 227
255 255 247 246 271 286 296 290 276 279 279 278 279 284 293 299 304 282 274 235 229 216 212 210 192 183 199 182 207 182 203 213 237 231 241 283 285 262 250 262 247 252 270 240 214
259 253 257 249 245 258 274 287 290 275 276 277 276 280 287 289 263 315 318 244 211 209 199 192 181 175 177 201 198 244 241 222 268 203 238 230 289 278 240 253 272 271 269 246 212
277 264 253 253 251 247 258 270 284 286 274 271 272 277 282 266 252 264 271 299 214 210 201 191 182 170 187 202 164 222 270 222 262 265 269 267 257 255 269 280 273 256 253 225 208
294 291 275 259 252 249 247 262 270 276 275 267 266 269 262 253 256 253 250 235 225 209 200 195 216 199 205 209 183 209 266 273 278 266 247 234 258 258 254 249 343 261 232 220 221
286 290 290 284 263 250 246 246 257 262 264 262 259 258 256 254 257 244 237 219 204 205 203 199 216 200 188 227 247 254 313 312 232 231 227 204 277 234 256 265 263 256 241 230 237
271 280 287 291 280 261 244 241 247 253 245 250 251 256 254 257 247 241 236 213 196 192 201 201 202 221 249 281 3 232 73 316 317 142 200 163 267 270 12 236 233 223 237 218 201
260 264 280 287 294 281 251 236 251 253 235 232 238 231 263 247 234 228 211 211 191 180 187 188 183 202 167 92 3 356 235 209 312 187 130 175 275 283 194 96 295 253 222 208 225
268 262 269 279 281 287 262 242 250 243 210 200 203 234 240 233 219 210 198 185 169 164 146 167 169 118 52 132 218 202 227 236 244 177 191 226 264 279 276 284 282 277 261 254 268
260 263 267 253 270 275 259 221 213 224 196 187 216 201 290 207 180 194 188 169 158 159 161 185 160 196 202 183 100 133 204 249 226 209 216 240 265 273 282 262 268 273 271 268 256
263 262 261 248 260 253 238 226 216 241 240 229 233 222 215 172 184 195 182 171 159 176 129 92 243 208 173 188 207 16 321 264 280 208 202 323 284 259 259 250 257 282 278 252 198
262 255 257 261 249 245 236 216 212 242 274 234 221 220 210 225 226 206 188 186 145 151 183 177 224 182 160 159 182 212 195 225 246 335 257 329 289 296 229 171 234 299 188 175 181
258 255 246 243 248 247 230 232 211 246 248 218 194 227 203 198 236 209 195 168 185 179 150 252 229 137 181 201 150 214 200 174 228 37 247 17 278 297 231 271 234 186 161 162 163
253 251 242 230 233 238 236 232 207 213 244 208 179 189 183 177 140 191 190 186 169 174 141 227 182 166 176 209 173 221 134 171 143 139 14 244 2 273 332 258 223 204 182 168 165
251 246 244 234 235 232 220 223 194 200 224 181 145 174 156 195 156 126 166 182 174 143 293 222 219 192 199 130 172 159 82 54 57 85 311 205 173 263 204 217 182 176 190 180 174
247 247 241 242 233 229 226 204 194 217 199 191 184 174 179 171 157 166 173 176 163 145 214 160 209 230 170 98 69 113 103 18 354 5 225 352 179 249 228 218 197 191 190 188 186
246 242 239 234 235 225 204 205 214 207 207 115 160 163 184 151 188 180 162 185 218 188 118 180 271 165 183 186 172 190 168 162 195 196 213 100 229 243 219 206 204 175 189 185 188
245 233 226 227 229 217 190 224 203 186 200 159 151 166 188 181 163 165 189 197 195 185 187 164 232 84 83 148 146 197 214 151 103 29 65 207 282 289 197 209 202 185 177 185 190
233 245 232 224 219 209 206 224 202 183 184 173 185 190 189 180 163 188 178 202 203 204 91 201 121 319 138 133 54 175 158 96 8 145 243 273 280 242 215 207 204 188 191 189 189
218 225 222 217 202 204 226 208 194 225 189 205 206 182 204 187 190 192 187 208 198 187 205 154 101 161 133 211 176 158 180 192 142 167 178 199 254 218 224 187 186 195 190 189 193
213 218 213 194 199 237 210 188 188 213 230 231 271 181 185 193 198 191 199 202 196 159 194 182 107 149 180 209 210 304 219 171 175 219 234 155 263 336 264 192 168 179 175 184 194
210 215 208 189 202 232 209 195 209 213 206 206 230 219 203 179 189 200 203 193 199 176 174 176 179 114 49 347 20 237 207 222 115 87 195 160 254 359 88 139 173 161 166 166 172
196 201 157 198 201 210 216 205 187 207 219 201 263 224 177 185 202 192 208 171 192 195 185 156 161 195 203 191 147 186 198 208 179 176 188 223 225 233 207 175 171 171 170 168 164
182 195 185 186 199 199 211 249 186 192 204 213 233 255 240 164 191 184 192 153 182 197 188 170 209 207 53 334 155 172 194 182 204 234 207 235 205 223 201 195 183 174 171 171 170
178 155 156 165 162 186 209 203 224 270 192 209 227 218 243 250 196 185 178 172 175 191 183 180 189 150 210 59 287 164 190 192 208 221 246 91 281 252 174 151 176 180 176 174 174
199 212 180 220 169 186 195 209 224 204 232 289 217 211 216 252 326 309 210 181 164 167 186 171 141 166 198 138 98 271 220 199 209 217 220 223 199 168 155 184 195 187 181 176 176